contact:dominique.lefevre@mio.osupytheas.fr, maurice.libes@osupytheas.fr, didier.mallarino@osupytheas.fr
Project:EMSO http://www.emso-fr.org/EMSO-France
Depth: 2436.0 m
Title:EMSO Ligure Ouest : Data MII capteur MICROCAT
DateTime_Computer,Latitude,Longitude,Temperature,Conductivity,Pressure,DateTime_Instrument
DateTime_Computer,Latitude,Longitude,degC,S m-1,dbar,DateTime_Instrument
2019-08-13T00:01:51Z,42.805,6.029,13.3024,4.60027,2469.853,2019-8-13T02:02:12Z
2019-08-13T00:04:54Z,42.805,6.029,13.3049,4.60016,2469.867,2019-8-13T02:05:15Z
2019-08-13T00:07:57Z,42.805,6.029,13.3025,4.60024,2469.821,2019-8-13T02:08:18Z
2019-08-13T00:11:01Z,42.805,6.029,13.3046,4.60011,2469.821,2019-8-13T02:11:21Z
2019-08-13T00:14:04Z,42.805,6.029,13.3003,4.60035,2469.83,2019-8-13T02:14:24Z
2019-08-13T00:17:07Z,42.805,6.029,13.2996,4.60064,2469.806,2019-8-13T02:17:28Z
2019-08-13T00:20:10Z,42.805,6.029,13.3005,4.60046,2469.89,2019-8-13T02:20:31Z
2019-08-13T00:23:14Z,42.805,6.029,13.3020,4.59999,2469.844,2019-8-13T02:23:34Z
2019-08-13T00:26:17Z,42.805,6.029,13.3030,4.59988,2469.821,2019-8-13T02:26:37Z
2019-08-13T00:29:20Z,42.805,6.029,13.3012,4.60011,2469.821,2019-8-13T02:29:40Z
2019-08-13T00:32:23Z,42.805,6.029,13.3003,4.60011,2469.821,2019-8-13T02:32:44Z
2019-08-13T00:35:26Z,42.805,6.029,13.3001,4.60052,2469.844,2019-8-13T02:35:47Z
2019-08-13T00:38:29Z,42.805,6.029,13.2983,4.60067,2469.821,2019-8-13T02:38:50Z
2019-08-13T00:41:33Z,42.805,6.029,13.2991,4.60034,2469.83,2019-8-13T02:41:53Z
2019-08-13T00:44:36Z,42.805,6.029,13.2996,4.60016,2469.806,2019-8-13T02:44:56Z
2019-08-13T00:47:39Z,42.805,6.029,13.3005,4.59999,2469.83,2019-8-13T02:48:00Z
2019-08-13T00:50:42Z,42.805,6.029,13.2969,4.60014,2469.844,2019-8-13T02:51:03Z
2019-08-13T00:53:45Z,42.805,6.029,13.3009,4.60021,2469.83,2019-8-13T02:54:06Z
2019-08-13T00:56:49Z,42.805,6.029,13.3018,4.60029,2469.821,2019-8-13T02:57:09Z
2019-08-13T00:59:52Z,42.805,6.029,13.3019,4.60025,2469.821,2019-8-13T03:00:12Z
2019-08-13T01:02:55Z,42.805,6.029,13.3040,4.60021,2469.853,2019-8-13T03:03:16Z
2019-08-13T01:05:58Z,42.805,6.029,13.3035,4.60023,2469.821,2019-8-13T03:06:19Z
2019-08-13T01:09:01Z,42.805,6.029,13.3008,4.60014,2469.821,2019-8-13T03:09:22Z
2019-08-13T01:12:05Z,42.805,6.029,13.3022,4.60027,2469.83,2019-8-13T03:12:25Z
2019-08-13T01:15:08Z,42.805,6.029,13.3007,4.60038,2469.844,2019-8-13T03:15:28Z
2019-08-13T01:18:11Z,42.805,6.029,13.3009,4.60026,2469.806,2019-8-13T03:18:32Z
2019-08-13T01:21:14Z,42.805,6.029,13.3036,4.60001,2469.821,2019-8-13T03:21:35Z
2019-08-13T01:24:17Z,42.805,6.029,13.3003,4.59977,2469.816,2019-8-13T03:24:38Z
2019-08-13T01:27:21Z,42.805,6.029,13.3021,4.60009,2469.821,2019-8-13T03:27:41Z
2019-08-13T01:30:24Z,42.805,6.029,13.3005,4.60044,2469.806,2019-8-13T03:30:44Z
2019-08-13T01:33:27Z,42.805,6.029,13.2995,4.60021,2469.83,2019-8-13T03:33:48Z
2019-08-13T01:36:30Z,42.805,6.029,13.3009,4.60059,2469.83,2019-8-13T03:36:51Z
2019-08-13T01:39:33Z,42.805,6.029,13.3004,4.60046,2469.806,2019-8-13T03:39:54Z
2019-08-13T01:42:37Z,42.805,6.029,13.3028,4.60011,2469.844,2019-8-13T03:42:57Z
2019-08-13T01:45:40Z,42.805,6.029,13.3021,4.60018,2469.83,2019-8-13T03:46:00Z
2019-08-13T01:48:43Z,42.805,6.029,13.3025,4.60007,2469.844,2019-8-13T03:49:04Z
2019-08-13T01:51:46Z,42.805,6.029,13.3015,4.60015,2469.844,2019-8-13T03:52:07Z
2019-08-13T01:54:49Z,42.805,6.029,13.3012,4.60012,2469.806,2019-8-13T03:55:10Z
2019-08-13T01:57:53Z,42.805,6.029,13.3011,4.60036,2469.853,2019-8-13T03:58:13Z
2019-08-13T02:00:56Z,42.805,6.029,13.2996,4.60024,2469.867,2019-8-13T04:01:16Z
2019-08-13T02:03:59Z,42.805,6.029,13.2993,4.60011,2469.83,2019-8-13T04:04:19Z
2019-08-13T02:07:02Z,42.805,6.029,13.3004,4.59991,2469.83,2019-8-13T04:07:23Z
2019-08-13T02:10:05Z,42.805,6.029,13.3009,4.60013,2469.844,2019-8-13T04:10:26Z
2019-08-13T02:13:08Z,42.805,6.029,13.3006,4.60026,2469.853,2019-8-13T04:13:29Z
2019-08-13T02:16:12Z,42.805,6.029,13.3000,4.60001,2469.844,2019-8-13T04:16:32Z
2019-08-13T02:19:15Z,42.805,6.029,13.3013,4.60002,2469.83,2019-8-13T04:19:35Z
2019-08-13T02:22:18Z,42.805,6.029,13.2969,4.59966,2469.83,2019-8-13T04:22:39Z
2019-08-13T02:25:21Z,42.805,6.029,13.2966,4.59974,2469.83,2019-8-13T04:25:42Z
2019-08-13T02:28:24Z,42.805,6.029,13.2959,4.59979,2469.844,2019-8-13T04:28:45Z
2019-08-13T02:31:28Z,42.805,6.029,13.2972,4.59971,2469.83,2019-8-13T04:31:48Z
2019-08-13T02:34:31Z,42.805,6.029,13.2980,4.59968,2469.867,2019-8-13T04:34:51Z
2019-08-13T02:37:34Z,42.805,6.029,13.2982,4.59968,2469.83,2019-8-13T04:37:55Z
2019-08-13T02:40:37Z,42.805,6.029,13.2978,4.59983,2469.853,2019-8-13T04:40:58Z
2019-08-13T02:43:40Z,42.805,6.029,13.2993,4.59991,2469.853,2019-8-13T04:44:01Z
2019-08-13T02:46:44Z,42.805,6.029,13.2995,4.59992,2469.853,2019-8-13T04:47:04Z
2019-08-13T02:49:47Z,42.805,6.029,13.2974,4.59970,2469.83,2019-8-13T04:50:07Z
2019-08-13T02:52:50Z,42.805,6.029,13.2991,4.59981,2469.83,2019-8-13T04:53:11Z
2019-08-13T02:55:53Z,42.805,6.029,13.2982,4.59997,2469.867,2019-8-13T04:56:14Z
2019-08-13T02:58:56Z,42.805,6.029,13.3000,4.59988,2469.83,2019-8-13T04:59:17Z
2019-08-13T03:01:59Z,42.805,6.029,13.2984,4.59975,2469.844,2019-8-13T05:02:20Z
2019-08-13T03:05:03Z,42.805,6.029,13.2979,4.59981,2469.89,2019-8-13T05:05:23Z
2019-08-13T03:08:06Z,42.805,6.029,13.2986,4.59989,2469.853,2019-8-13T05:08:26Z
2019-08-13T03:11:09Z,42.805,6.029,13.2993,4.59984,2469.853,2019-8-13T05:11:30Z
2019-08-13T03:14:12Z,42.805,6.029,13.2989,4.60003,2469.89,2019-8-13T05:14:33Z
2019-08-13T03:17:16Z,42.805,6.029,13.2983,4.60032,2469.853,2019-8-13T05:17:36Z
2019-08-13T03:20:19Z,42.805,6.029,13.2981,4.60039,2469.867,2019-8-13T05:20:39Z
2019-08-13T03:23:22Z,42.805,6.029,13.2986,4.60028,2469.867,2019-8-13T05:23:42Z
2019-08-13T03:26:25Z,42.805,6.029,13.2986,4.60016,2469.853,2019-8-13T05:26:46Z
2019-08-13T03:29:28Z,42.805,6.029,13.3000,4.60021,2469.853,2019-8-13T05:29:49Z
2019-08-13T03:32:32Z,42.805,6.029,13.2979,4.60034,2469.867,2019-8-13T05:32:52Z
2019-08-13T03:35:35Z,42.805,6.029,13.2990,4.59990,2469.853,2019-8-13T05:35:55Z
2019-08-13T03:38:38Z,42.805,6.029,13.2990,4.60011,2469.867,2019-8-13T05:38:59Z
2019-08-13T03:41:41Z,42.805,6.029,13.2979,4.60032,2469.876,2019-8-13T05:42:02Z
2019-08-13T03:44:44Z,42.805,6.029,13.2973,4.60022,2469.853,2019-8-13T05:45:05Z
2019-08-13T03:47:48Z,42.805,6.029,13.2975,4.59996,2469.853,2019-8-13T05:48:08Z
2019-08-13T03:50:51Z,42.805,6.029,13.2974,4.60029,2469.853,2019-8-13T05:51:11Z
2019-08-13T03:53:54Z,42.805,6.029,13.2975,4.60009,2469.853,2019-8-13T05:54:15Z
2019-08-13T03:56:57Z,42.805,6.029,13.2972,4.60003,2469.89,2019-8-13T05:57:18Z
2019-08-13T04:00:00Z,42.805,6.029,13.2973,4.59998,2469.914,2019-8-13T06:00:21Z
2019-08-13T04:03:04Z,42.805,6.029,13.2976,4.60013,2469.9,2019-8-13T06:03:24Z
2019-08-13T04:06:07Z,42.805,6.029,13.2974,4.60011,2469.89,2019-8-13T06:06:27Z
2019-08-13T04:09:10Z,42.805,6.029,13.2981,4.59979,2469.853,2019-8-13T06:09:31Z
2019-08-13T04:12:13Z,42.805,6.029,13.2973,4.60016,2469.937,2019-8-13T06:12:34Z
2019-08-13T04:15:16Z,42.805,6.029,13.2967,4.60010,2469.876,2019-8-13T06:15:37Z
2019-08-13T04:18:20Z,42.805,6.029,13.2980,4.60026,2469.89,2019-8-13T06:18:40Z
2019-08-13T04:21:23Z,42.805,6.029,13.2979,4.60013,2469.914,2019-8-13T06:21:43Z
2019-08-13T04:24:26Z,42.805,6.029,13.2973,4.60006,2469.923,2019-8-13T06:24:47Z
2019-08-13T04:27:29Z,42.805,6.029,13.2983,4.60016,2469.914,2019-8-13T06:27:50Z
2019-08-13T04:30:32Z,42.805,6.029,13.2974,4.60027,2469.89,2019-8-13T06:30:53Z
2019-08-13T04:33:36Z,42.805,6.029,13.2979,4.60029,2469.876,2019-8-13T06:33:56Z
2019-08-13T04:36:39Z,42.805,6.029,13.2985,4.60001,2469.937,2019-8-13T06:36:59Z
2019-08-13T04:39:42Z,42.805,6.029,13.2969,4.60014,2469.89,2019-8-13T06:40:02Z
2019-08-13T04:42:45Z,42.805,6.029,13.2962,4.59994,2469.923,2019-8-13T06:43:06Z
2019-08-13T04:45:48Z,42.805,6.029,13.2960,4.60009,2469.89,2019-8-13T06:46:09Z
2019-08-13T04:48:51Z,42.805,6.029,13.2974,4.60023,2469.914,2019-8-13T06:49:12Z
2019-08-13T04:51:55Z,42.805,6.029,13.2973,4.60009,2469.9,2019-8-13T06:52:15Z
2019-08-13T04:54:58Z,42.805,6.029,13.2961,4.59991,2469.937,2019-8-13T06:55:18Z
2019-08-13T04:58:01Z,42.805,6.029,13.2969,4.59991,2469.914,2019-8-13T06:58:22Z
2019-08-13T05:01:04Z,42.805,6.029,13.2976,4.60029,2469.914,2019-8-13T07:01:25Z
2019-08-13T05:04:07Z,42.805,6.029,13.2983,4.60009,2469.876,2019-8-13T07:04:28Z
2019-08-13T05:07:11Z,42.805,6.029,13.2971,4.60005,2469.914,2019-8-13T07:07:31Z
2019-08-13T05:10:14Z,42.805,6.029,13.2974,4.60008,2469.9,2019-8-13T07:10:34Z
2019-08-13T05:13:17Z,42.805,6.029,13.2971,4.59997,2469.9,2019-8-13T07:13:37Z
2019-08-13T05:16:20Z,42.805,6.029,13.2973,4.59994,2469.914,2019-8-13T07:16:41Z
2019-08-13T05:19:23Z,42.805,6.029,13.2985,4.60007,2469.923,2019-8-13T07:19:44Z
2019-08-13T05:22:26Z,42.805,6.029,13.2978,4.60002,2469.914,2019-8-13T07:22:47Z
2019-08-13T05:25:30Z,42.805,6.029,13.2967,4.59991,2469.9,2019-8-13T07:25:50Z
2019-08-13T05:28:33Z,42.805,6.029,13.2970,4.59981,2469.9,2019-8-13T07:28:53Z
2019-08-13T05:31:36Z,42.805,6.029,13.2980,4.60002,2469.96,2019-8-13T07:31:57Z
2019-08-13T05:34:39Z,42.805,6.029,13.2979,4.60014,2469.923,2019-8-13T07:35:00Z
2019-08-13T05:37:42Z,42.805,6.029,13.2973,4.60011,2469.937,2019-8-13T07:38:03Z
2019-08-13T05:40:46Z,42.805,6.029,13.2982,4.60003,2469.9,2019-8-13T07:41:06Z
2019-08-13T05:43:49Z,42.805,6.029,13.2965,4.59998,2469.9,2019-8-13T07:44:09Z
2019-08-13T05:46:52Z,42.805,6.029,13.2968,4.59998,2469.9,2019-8-13T07:47:13Z
2019-08-13T05:49:55Z,42.805,6.029,13.2965,4.59996,2469.937,2019-8-13T07:50:16Z
2019-08-13T05:52:58Z,42.805,6.029,13.2969,4.59999,2469.89,2019-8-13T07:53:19Z
2019-08-13T05:56:02Z,42.805,6.029,13.2977,4.59993,2469.923,2019-8-13T07:56:22Z
2019-08-13T05:59:05Z,42.805,6.029,13.2967,4.59994,2469.914,2019-8-13T07:59:25Z
2019-08-13T06:02:08Z,42.805,6.029,13.2972,4.59988,2469.914,2019-8-13T08:02:28Z
2019-08-13T06:05:11Z,42.805,6.029,13.2971,4.59999,2469.923,2019-8-13T08:05:32Z
2019-08-13T06:08:14Z,42.805,6.029,13.2971,4.59988,2469.867,2019-8-13T08:08:35Z
2019-08-13T06:11:17Z,42.805,6.029,13.2970,4.60005,2469.89,2019-8-13T08:11:38Z
2019-08-13T06:14:21Z,42.805,6.029,13.2974,4.60009,2469.914,2019-8-13T08:14:41Z
2019-08-13T06:17:24Z,42.805,6.029,13.2966,4.59981,2469.876,2019-8-13T08:17:44Z
2019-08-13T06:20:27Z,42.805,6.029,13.2969,4.60013,2469.876,2019-8-13T08:20:48Z
2019-08-13T06:23:30Z,42.805,6.029,13.2978,4.60018,2469.937,2019-8-13T08:23:51Z
2019-08-13T06:26:34Z,42.805,6.029,13.2979,4.60016,2469.914,2019-8-13T08:26:54Z
2019-08-13T06:29:37Z,42.805,6.029,13.2970,4.60030,2469.876,2019-8-13T08:29:57Z
2019-08-13T06:32:40Z,42.805,6.029,13.2979,4.60008,2469.914,2019-8-13T08:33:01Z
2019-08-13T06:35:43Z,42.805,6.029,13.2985,4.59999,2469.9,2019-8-13T08:36:04Z
2019-08-13T06:38:46Z,42.805,6.029,13.2967,4.60000,2469.89,2019-8-13T08:39:07Z
2019-08-13T06:41:50Z,42.805,6.029,13.2977,4.60026,2469.914,2019-8-13T08:42:10Z
2019-08-13T06:44:53Z,42.805,6.029,13.2974,4.60002,2469.9,2019-8-13T08:45:13Z
2019-08-13T06:47:56Z,42.805,6.029,13.2976,4.59996,2469.914,2019-8-13T08:48:16Z
2019-08-13T06:50:59Z,42.805,6.029,13.2970,4.60009,2469.876,2019-8-13T08:51:20Z
2019-08-13T06:54:02Z,42.805,6.029,13.2974,4.60016,2469.9,2019-8-13T08:54:23Z
2019-08-13T06:57:06Z,42.805,6.029,13.2972,4.60009,2469.876,2019-8-13T08:57:26Z
2019-08-13T07:00:09Z,42.805,6.029,13.2969,4.59995,2469.923,2019-8-13T09:00:29Z
2019-08-13T07:03:12Z,42.805,6.029,13.2973,4.59997,2469.914,2019-8-13T09:03:32Z
2019-08-13T07:06:15Z,42.805,6.029,13.2974,4.60009,2469.876,2019-8-13T09:06:36Z
2019-08-13T07:09:18Z,42.805,6.029,13.2968,4.59999,2469.876,2019-8-13T09:09:39Z
2019-08-13T07:12:21Z,42.805,6.029,13.2967,4.59988,2469.89,2019-8-13T09:12:42Z
2019-08-13T07:15:25Z,42.805,6.029,13.2983,4.60018,2469.89,2019-8-13T09:15:45Z
2019-08-13T07:18:28Z,42.805,6.029,13.2964,4.59989,2469.9,2019-8-13T09:18:48Z
2019-08-13T07:21:31Z,42.805,6.029,13.2973,4.59993,2469.9,2019-8-13T09:21:52Z
2019-08-13T07:24:34Z,42.805,6.029,13.2974,4.60006,2469.914,2019-8-13T09:24:55Z
2019-08-13T07:27:37Z,42.805,6.029,13.2973,4.59999,2469.867,2019-8-13T09:27:58Z
2019-08-13T07:30:41Z,42.805,6.029,13.2976,4.60001,2469.89,2019-8-13T09:31:01Z
2019-08-13T07:33:44Z,42.805,6.029,13.2972,4.60003,2469.876,2019-8-13T09:34:04Z
2019-08-13T07:36:47Z,42.805,6.029,13.2970,4.59985,2469.9,2019-8-13T09:37:08Z
2019-08-13T07:39:50Z,42.805,6.029,13.2969,4.60001,2469.876,2019-8-13T09:40:11Z
2019-08-13T07:42:54Z,42.805,6.029,13.2966,4.59998,2469.89,2019-8-13T09:43:14Z
2019-08-13T07:45:57Z,42.805,6.029,13.2979,4.60006,2469.876,2019-8-13T09:46:17Z
2019-08-13T07:49:00Z,42.805,6.029,13.2982,4.60011,2469.867,2019-8-13T09:49:20Z
2019-08-13T07:52:03Z,42.805,6.029,13.2971,4.60009,2469.876,2019-8-13T09:52:24Z
2019-08-13T07:55:06Z,42.805,6.029,13.2967,4.59985,2469.867,2019-8-13T09:55:27Z
2019-08-13T07:58:09Z,42.805,6.029,13.2984,4.59999,2469.9,2019-8-13T09:58:30Z
2019-08-13T08:01:13Z,42.805,6.029,13.2972,4.59999,2469.867,2019-8-13T10:01:33Z
2019-08-13T08:04:16Z,42.805,6.029,13.2974,4.60005,2469.9,2019-8-13T10:04:36Z
2019-08-13T08:07:19Z,42.805,6.029,13.2976,4.60015,2469.853,2019-8-13T10:07:40Z
2019-08-13T08:10:22Z,42.805,6.029,13.2971,4.59997,2469.89,2019-8-13T10:10:43Z
2019-08-13T08:13:25Z,42.805,6.029,13.2965,4.60008,2469.853,2019-8-13T10:13:46Z
2019-08-13T08:16:29Z,42.805,6.029,13.2968,4.60007,2469.853,2019-8-13T10:16:49Z
2019-08-13T08:19:32Z,42.805,6.029,13.2972,4.60004,2469.853,2019-8-13T10:19:52Z
2019-08-13T08:22:35Z,42.805,6.029,13.2976,4.60003,2469.853,2019-8-13T10:22:56Z
2019-08-13T08:25:38Z,42.805,6.029,13.2976,4.59988,2469.83,2019-8-13T10:25:59Z
2019-08-13T08:28:41Z,42.805,6.029,13.2969,4.59991,2469.876,2019-8-13T10:29:02Z
2019-08-13T08:31:45Z,42.805,6.029,13.2969,4.59996,2469.853,2019-8-13T10:32:05Z
2019-08-13T08:34:48Z,42.805,6.029,13.2974,4.59994,2469.853,2019-8-13T10:35:08Z
2019-08-13T08:37:51Z,42.805,6.029,13.2967,4.59991,2469.844,2019-8-13T10:38:12Z
2019-08-13T08:40:54Z,42.805,6.029,13.2970,4.59993,2469.9,2019-8-13T10:41:15Z
2019-08-13T08:43:58Z,42.805,6.029,13.2970,4.59992,2469.821,2019-8-13T10:44:18Z
2019-08-13T08:47:01Z,42.805,6.029,13.2971,4.59999,2469.83,2019-8-13T10:47:21Z
2019-08-13T08:50:04Z,42.805,6.029,13.2982,4.60011,2469.867,2019-8-13T10:50:25Z
2019-08-13T08:53:07Z,42.805,6.029,13.2967,4.59991,2469.821,2019-8-13T10:53:28Z
2019-08-13T08:56:10Z,42.805,6.029,13.2971,4.59998,2469.844,2019-8-13T10:56:31Z
2019-08-13T08:59:14Z,42.805,6.029,13.2973,4.59981,2469.83,2019-8-13T10:59:34Z
2019-08-13T09:02:17Z,42.805,6.029,13.2971,4.59983,2469.844,2019-8-13T11:02:37Z
2019-08-13T09:05:20Z,42.805,6.029,13.2970,4.59986,2469.797,2019-8-13T11:05:41Z
2019-08-13T09:08:23Z,42.805,6.029,13.2970,4.59986,2469.821,2019-8-13T11:08:44Z
2019-08-13T09:11:26Z,42.805,6.029,13.2965,4.59986,2469.83,2019-8-13T11:11:47Z
2019-08-13T09:14:30Z,42.805,6.029,13.2968,4.59995,2469.806,2019-8-13T11:14:50Z
2019-08-13T09:17:33Z,42.805,6.029,13.2969,4.59999,2469.797,2019-8-13T11:17:54Z
2019-08-13T09:20:36Z,42.805,6.029,13.2966,4.60005,2469.83,2019-8-13T11:20:57Z
2019-08-13T09:23:39Z,42.805,6.029,13.2966,4.59983,2469.821,2019-8-13T11:24:00Z
2019-08-13T09:26:43Z,42.805,6.029,13.2976,4.59986,2469.844,2019-8-13T11:27:03Z
2019-08-13T09:29:46Z,42.805,6.029,13.2968,4.60003,2469.83,2019-8-13T11:30:06Z
2019-08-13T09:32:49Z,42.805,6.029,13.2976,4.60003,2469.806,2019-8-13T11:33:10Z
2019-08-13T09:35:52Z,42.805,6.029,13.2974,4.60008,2469.806,2019-8-13T11:36:13Z
2019-08-13T09:38:55Z,42.805,6.029,13.2968,4.60006,2469.806,2019-8-13T11:39:16Z
2019-08-13T09:41:59Z,42.805,6.029,13.2975,4.59996,2469.83,2019-8-13T11:42:19Z
2019-08-13T09:45:02Z,42.805,6.029,13.2966,4.59994,2469.806,2019-8-13T11:45:22Z
2019-08-13T09:48:05Z,42.805,6.029,13.2976,4.59998,2469.83,2019-8-13T11:48:26Z
2019-08-13T09:51:08Z,42.805,6.029,13.2973,4.60009,2469.821,2019-8-13T11:51:29Z
2019-08-13T09:54:12Z,42.805,6.029,13.2983,4.59995,2469.806,2019-8-13T11:54:32Z
2019-08-13T09:57:15Z,42.805,6.029,13.2982,4.60005,2469.806,2019-8-13T11:57:35Z
2019-08-13T10:00:18Z,42.805,6.029,13.2967,4.60003,2469.821,2019-8-13T12:00:39Z
2019-08-13T10:03:21Z,42.805,6.029,13.2976,4.60017,2469.821,2019-8-13T12:03:42Z
2019-08-13T10:06:24Z,42.805,6.029,13.2971,4.60015,2469.806,2019-8-13T12:06:45Z
2019-08-13T10:09:28Z,42.805,6.029,13.2968,4.59984,2469.773,2019-8-13T12:09:48Z
2019-08-13T10:12:31Z,42.805,6.029,13.2965,4.59998,2469.797,2019-8-13T12:12:51Z
2019-08-13T10:15:34Z,42.805,6.029,13.2969,4.59999,2469.783,2019-8-13T12:15:55Z
2019-08-13T10:18:37Z,42.805,6.029,13.2969,4.60001,2469.797,2019-8-13T12:18:58Z
2019-08-13T10:21:41Z,42.805,6.029,13.2975,4.59995,2469.783,2019-8-13T12:22:01Z
2019-08-13T10:24:44Z,42.805,6.029,13.2971,4.59990,2469.797,2019-8-13T12:25:04Z
2019-08-13T10:27:47Z,42.805,6.029,13.2974,4.60003,2469.797,2019-8-13T12:28:07Z
2019-08-13T10:30:50Z,42.805,6.029,13.2971,4.59999,2469.783,2019-8-13T12:31:11Z
2019-08-13T10:33:53Z,42.805,6.029,13.2991,4.60001,2469.783,2019-8-13T12:34:14Z
2019-08-13T10:36:57Z,42.805,6.029,13.2982,4.59999,2469.783,2019-8-13T12:37:17Z
2019-08-13T10:40:00Z,42.805,6.029,13.2967,4.59993,2469.773,2019-8-13T12:40:20Z
2019-08-13T10:43:03Z,42.805,6.029,13.2969,4.60010,2469.783,2019-8-13T12:43:24Z
2019-08-13T10:46:06Z,42.805,6.029,13.2974,4.59992,2469.773,2019-8-13T12:46:27Z
2019-08-13T10:49:10Z,42.805,6.029,13.2974,4.60004,2469.773,2019-8-13T12:49:30Z
2019-08-13T10:52:13Z,42.805,6.029,13.2970,4.59985,2469.783,2019-8-13T12:52:33Z
2019-08-13T10:55:16Z,42.805,6.029,13.2971,4.59986,2469.773,2019-8-13T12:55:37Z
2019-08-13T10:58:19Z,42.805,6.029,13.2968,4.59981,2469.797,2019-8-13T12:58:40Z
2019-08-13T11:01:23Z,42.805,6.029,13.2967,4.59994,2469.773,2019-8-13T13:01:43Z
2019-08-13T11:04:26Z,42.805,6.029,13.2973,4.59989,2469.773,2019-8-13T13:04:46Z
2019-08-13T11:07:29Z,42.805,6.029,13.2969,4.59993,2469.76,2019-8-13T13:07:49Z
2019-08-13T11:10:32Z,42.805,6.029,13.2971,4.60001,2469.797,2019-8-13T13:10:53Z
2019-08-13T11:13:35Z,42.805,6.029,13.2970,4.59976,2469.783,2019-8-13T13:13:56Z
2019-08-13T11:16:39Z,42.805,6.029,13.2978,4.60019,2469.76,2019-8-13T13:16:59Z
2019-08-13T11:19:42Z,42.805,6.029,13.2974,4.59993,2469.76,2019-8-13T13:20:02Z
2019-08-13T11:22:45Z,42.805,6.029,13.2976,4.59985,2469.773,2019-8-13T13:23:06Z
2019-08-13T11:25:49Z,42.805,6.029,13.2990,4.59990,2469.76,2019-8-13T13:26:09Z
2019-08-13T11:28:52Z,42.805,6.029,13.2973,4.60009,2469.76,2019-8-13T13:29:13Z
2019-08-13T11:31:55Z,42.805,6.029,13.2992,4.60002,2469.773,2019-8-13T13:32:16Z
2019-08-13T11:34:58Z,42.805,6.029,13.2965,4.59984,2469.76,2019-8-13T13:35:19Z
2019-08-13T11:38:02Z,42.805,6.029,13.2968,4.59983,2469.773,2019-8-13T13:38:22Z
2019-08-13T11:41:05Z,42.805,6.029,13.2968,4.59990,2469.737,2019-8-13T13:41:26Z
2019-08-13T11:44:08Z,42.805,6.029,13.2979,4.60000,2469.76,2019-8-13T13:44:29Z
2019-08-13T11:47:11Z,42.805,6.029,13.2975,4.59982,2469.773,2019-8-13T13:47:32Z
2019-08-13T11:50:15Z,42.805,6.029,13.2970,4.60008,2469.713,2019-8-13T13:50:35Z
2019-08-13T11:53:18Z,42.805,6.029,13.2981,4.59995,2469.773,2019-8-13T13:53:38Z
2019-08-13T11:56:21Z,42.805,6.029,13.2959,4.59982,2469.821,2019-8-13T13:56:42Z
2019-08-13T11:59:24Z,42.805,6.029,13.2961,4.59974,2469.737,2019-8-13T13:59:45Z
2019-08-13T12:02:28Z,42.805,6.029,13.2967,4.59979,2469.773,2019-8-13T14:02:48Z
2019-08-13T12:05:31Z,42.805,6.029,13.2962,4.59990,2469.773,2019-8-13T14:05:51Z
2019-08-13T12:08:34Z,42.805,6.029,13.2970,4.59982,2469.76,2019-8-13T14:08:55Z
2019-08-13T12:11:37Z,42.805,6.029,13.2966,4.59985,2469.737,2019-8-13T14:11:58Z
2019-08-13T12:14:40Z,42.805,6.029,13.2969,4.59993,2469.76,2019-8-13T14:15:01Z
2019-08-13T12:17:44Z,42.805,6.029,13.2978,4.60003,2469.773,2019-8-13T14:18:04Z
2019-08-13T12:20:47Z,42.805,6.029,13.2975,4.60001,2469.75,2019-8-13T14:21:07Z
2019-08-13T12:23:50Z,42.805,6.029,13.2973,4.59980,2469.75,2019-8-13T14:24:11Z
2019-08-13T12:26:53Z,42.805,6.029,13.2968,4.59988,2469.76,2019-8-13T14:27:14Z
2019-08-13T12:29:57Z,42.805,6.029,13.2968,4.59978,2469.773,2019-8-13T14:30:17Z
2019-08-13T12:33:00Z,42.805,6.029,13.2967,4.59973,2469.76,2019-8-13T14:33:20Z
2019-08-13T12:36:03Z,42.805,6.029,13.2964,4.59977,2469.737,2019-8-13T14:36:24Z
2019-08-13T12:39:06Z,42.805,6.029,13.2970,4.60012,2469.821,2019-8-13T14:39:27Z
2019-08-13T12:42:10Z,42.805,6.029,13.2963,4.59982,2469.76,2019-8-13T14:42:30Z
2019-08-13T12:45:13Z,42.805,6.029,13.2968,4.59994,2469.76,2019-8-13T14:45:33Z
2019-08-13T12:48:16Z,42.805,6.029,13.2968,4.59984,2469.76,2019-8-13T14:48:37Z
2019-08-13T12:51:19Z,42.805,6.029,13.2972,4.59978,2469.797,2019-8-13T14:51:40Z
2019-08-13T12:54:22Z,42.805,6.029,13.2966,4.59976,2469.737,2019-8-13T14:54:43Z
2019-08-13T12:57:26Z,42.805,6.029,13.2965,4.59973,2469.806,2019-8-13T14:57:46Z
2019-08-13T13:00:29Z,42.805,6.029,13.2967,4.59981,2469.76,2019-8-13T15:00:50Z
2019-08-13T13:03:32Z,42.805,6.029,13.2964,4.59973,2469.737,2019-8-13T15:03:53Z
2019-08-13T13:06:35Z,42.805,6.029,13.2963,4.59983,2469.773,2019-8-13T15:06:56Z
2019-08-13T13:09:39Z,42.805,6.029,13.2965,4.59983,2469.773,2019-8-13T15:09:59Z
2019-08-13T13:12:42Z,42.805,6.029,13.2964,4.59982,2469.737,2019-8-13T15:13:03Z
2019-08-13T13:15:45Z,42.805,6.029,13.2980,4.59996,2469.797,2019-8-13T15:16:06Z
2019-08-13T13:18:49Z,42.805,6.029,13.2976,4.60011,2469.783,2019-8-13T15:19:09Z
2019-08-13T13:21:52Z,42.805,6.029,13.2983,4.60003,2469.773,2019-8-13T15:22:13Z
2019-08-13T13:24:55Z,42.805,6.029,13.2966,4.59983,2469.75,2019-8-13T15:25:16Z
2019-08-13T13:27:58Z,42.805,6.029,13.2978,4.60007,2469.76,2019-8-13T15:28:19Z
2019-08-13T13:31:02Z,42.805,6.029,13.2983,4.60007,2469.773,2019-8-13T15:31:22Z
2019-08-13T13:34:05Z,42.805,6.029,13.2983,4.60009,2469.797,2019-8-13T15:34:25Z
2019-08-13T13:37:08Z,42.805,6.029,13.2967,4.60003,2469.773,2019-8-13T15:37:29Z
2019-08-13T13:40:11Z,42.805,6.029,13.2971,4.59996,2469.773,2019-8-13T15:40:32Z
2019-08-13T13:43:15Z,42.805,6.029,13.2964,4.59991,2469.773,2019-8-13T15:43:35Z
2019-08-13T13:46:18Z,42.805,6.029,13.2974,4.59984,2469.773,2019-8-13T15:46:38Z
2019-08-13T13:49:21Z,42.805,6.029,13.2970,4.59990,2469.737,2019-8-13T15:49:42Z
2019-08-13T13:52:24Z,42.805,6.029,13.2972,4.59990,2469.76,2019-8-13T15:52:45Z
2019-08-13T13:55:28Z,42.805,6.029,13.2968,4.60003,2469.797,2019-8-13T15:55:48Z
2019-08-13T13:58:31Z,42.805,6.029,13.2972,4.60008,2469.773,2019-8-13T15:58:51Z
2019-08-13T14:01:34Z,42.805,6.029,13.2980,4.60001,2469.783,2019-8-13T16:01:55Z
2019-08-13T14:04:37Z,42.805,6.029,13.2996,4.60010,2469.806,2019-8-13T16:04:58Z
2019-08-13T14:07:41Z,42.805,6.029,13.2982,4.59999,2469.76,2019-8-13T16:08:01Z
2019-08-13T14:10:44Z,42.805,6.029,13.2979,4.60022,2469.806,2019-8-13T16:11:04Z
2019-08-13T14:13:47Z,42.805,6.029,13.2968,4.60013,2469.783,2019-8-13T16:14:08Z
2019-08-13T14:16:50Z,42.805,6.029,13.2971,4.60019,2469.797,2019-8-13T16:17:11Z
2019-08-13T14:19:53Z,42.805,6.029,13.2982,4.60021,2469.821,2019-8-13T16:20:14Z
2019-08-13T14:22:57Z,42.805,6.029,13.2969,4.60023,2469.76,2019-8-13T16:23:17Z
2019-08-13T14:26:00Z,42.805,6.029,13.2986,4.60019,2469.773,2019-8-13T16:26:20Z
2019-08-13T14:29:03Z,42.805,6.029,13.3003,4.60021,2469.834,2019-8-13T16:29:24Z
2019-08-13T14:32:06Z,42.805,6.029,13.2987,4.60008,2469.821,2019-8-13T16:32:27Z
2019-08-13T14:35:09Z,42.805,6.029,13.2982,4.60021,2469.783,2019-8-13T16:35:30Z
2019-08-13T14:38:13Z,42.805,6.029,13.2972,4.60049,2469.806,2019-8-13T16:38:33Z
2019-08-13T14:41:16Z,42.805,6.029,13.2980,4.60019,2469.773,2019-8-13T16:41:36Z
2019-08-13T14:44:19Z,42.805,6.029,13.2985,4.60009,2469.783,2019-8-13T16:44:40Z
2019-08-13T14:47:22Z,42.805,6.029,13.2976,4.60011,2469.76,2019-8-13T16:47:43Z
2019-08-13T14:50:25Z,42.805,6.029,13.2981,4.60004,2469.806,2019-8-13T16:50:46Z
2019-08-13T14:53:29Z,42.805,6.029,13.2976,4.60037,2469.83,2019-8-13T16:53:49Z
2019-08-13T14:56:32Z,42.805,6.029,13.2984,4.60037,2469.821,2019-8-13T16:56:52Z
2019-08-13T14:59:35Z,42.805,6.029,13.2996,4.60024,2469.806,2019-8-13T16:59:56Z
2019-08-13T15:02:38Z,42.805,6.029,13.2986,4.60037,2469.844,2019-8-13T17:02:59Z
2019-08-13T15:05:41Z,42.805,6.029,13.2977,4.60035,2469.867,2019-8-13T17:06:02Z
2019-08-13T15:08:45Z,42.805,6.029,13.2987,4.60009,2469.806,2019-8-13T17:09:05Z
2019-08-13T15:11:48Z,42.805,6.029,13.2988,4.60041,2469.844,2019-8-13T17:12:08Z
2019-08-13T15:14:51Z,42.805,6.029,13.2966,4.60040,2469.821,2019-8-13T17:15:11Z